Date String (YYYY-MM-DD hh:mm:ss) UTC,Instrument flags,absolute air pressure of the measurement (hPa),sample flow rate (lpm),inlet stack bypass flow (lpm),air temperature of the measurement (°C),ambient temperature measured by the external sensor (°C),aerosol sample conditioner tube jacket temperature (°C),OPC LED temperature (°C),internal box temperature (°C),relative humidity of the measurement (%),span deviation,mass concentration of particles derived from Lorenz-Mie calculation of OPC scattering (μg/m³),mass concentration of particles derived from Lorenz-Mie calculation of OPC scattering (μg/m³),mass concentration of particles derived from Lorenz-Mie calculation of OPC scattering (μg/m³)
DateTimeUTC,F1_M11,P_M11,Q1_M11,Q2_M11,T1_M11,T2_M11,T3_M11,T4_M11,T5_M11,U1_M11,ZSPAN_M11,X2_M11,X0_M11,X1_M11
2024-03-18 16:00:00,SystemResetWarning,0834.9,5.01,000.00,018.7,018.3,000.0,027.0,020.4,18.6,0000.0,0002.81,0005.38,0002.42
2024-03-18 16:01:00,SystemResetWarning,0834.9,5.00,000.00,018.7,018.3,000.0,027.0,020.4,18.3,0000.0,0002.82,0005.60,0002.40
2024-03-18 16:02:00,SystemResetWarning,0834.9,4.99,000.00,018.7,018.3,000.0,027.0,020.5,18.5,0000.0,0002.78,0005.80,0002.34
2024-03-18 16:03:00,SystemResetWarning,0834.9,5.00,000.00,018.7,018.3,000.0,027.0,020.5,18.9,0000.0,0002.73,0005.90,0002.27
2024-03-18 16:04:00,SystemResetWarning,0834.9,5.00,000.00,018.7,018.3,000.0,027.0,020.5,19.0,0000.0,0002.68,0005.61,0002.19
2024-03-18 16:05:00,SystemResetWarning,0835.0,5.00,000.00,018.7,018.3,000.0,027.0,020.5,18.7,0000.0,0002.63,0005.08,0002.14
2024-03-18 16:06:00,SystemResetWarning,0834.9,5.01,000.00,018.8,018.4,000.0,027.0,020.5,18.4,0000.0,0002.65,0004.73,0002.15
2024-03-18 16:07:00,SystemResetWarning,0834.9,5.00,000.00,018.8,018.4,000.0,027.1,020.5,18.6,0000.0,0002.71,0004.71,0002.22
2024-03-18 16:08:00,SystemResetWarning,0834.8,4.99,000.00,018.8,018.4,000.0,027.1,020.6,19.1,0000.0,0002.74,0004.79,0002.27
2024-03-18 16:09:00,SystemResetWarning,0834.9,4.99,000.00,018.8,018.4,000.0,027.1,020.6,19.8,0000.0,0002.80,0005.00,0002.34
2024-03-18 16:10:00,SystemResetWarning,0834.9,5.00,000.00,018.8,018.4,000.0,027.1,020.6,19.9,0000.0,0002.89,0005.36,0002.45
2024-03-18 16:11:00,SystemResetWarning,0834.9,5.00,000.00,018.8,018.4,000.0,027.1,020.6,20.0,0000.0,0003.06,0006.01,0002.65
2024-03-18 16:12:00,SystemResetWarning,0834.9,5.01,000.00,018.8,018.4,000.0,027.1,020.6,20.0,0000.0,0003.25,0006.39,0002.92
2024-03-18 16:13:00,SystemResetWarning,0834.9,5.00,000.00,018.8,018.4,000.0,027.1,020.6,19.7,0000.0,0003.36,0007.20,0003.12
2024-03-18 16:14:00,SystemResetWarning,0834.8,5.01,000.00,018.9,018.4,000.0,027.1,020.6,20.0,0000.0,0003.44,0007.50,0003.22
2024-03-18 16:15:00,SystemResetWarning,0834.8,5.01,000.00,018.9,018.5,000.0,027.1,020.6,19.5,0000.0,0003.49,0008.11,0003.30
2024-03-18 16:16:00,SystemResetWarning,0834.9,4.98,000.00,018.9,018.5,000.0,027.2,020.6,19.7,0000.0,0003.57,0008.50,0003.37
2024-03-18 16:17:00,SystemResetWarning,0834.8,5.00,000.00,018.9,018.5,000.0,027.2,020.7,19.8,0000.0,0003.60,0008.54,0003.39
2024-03-18 16:18:00,SystemResetWarning,0834.8,5.00,000.00,018.9,018.5,000.0,027.2,020.7,19.8,0000.0,0003.57,0008.48,0003.37
2024-03-18 16:19:00,SystemResetWarning,0835.0,5.00,000.00,018.9,018.5,000.0,027.2,020.7,19.8,0000.0,0003.55,0008.42,0003.31
2024-03-18 16:20:00,SystemResetWarning,0834.9,5.01,000.00,018.9,018.6,000.0,027.2,020.7,19.9,0000.0,0003.53,0008.26,0003.28
2024-03-18 16:21:00,SystemResetWarning,0835.1,5.00,000.00,019.0,018.6,000.0,027.2,020.7,19.9,0000.0,0003.52,0008.17,0003.26
2024-03-18 16:22:00,SystemResetWarning,0835.2,4.99,000.00,019.0,018.6,000.0,027.2,020.7,19.8,0000.0,0003.47,0007.78,0003.22
2024-03-18 16:23:00,SystemResetWarning,0835.4,5.00,000.00,019.0,018.6,000.0,027.3,020.8,20.1,0000.0,0003.36,0007.64,0003.13
2024-03-18 16:24:00,SystemResetWarning,0834.9,5.00,000.00,019.0,018.6,000.0,027.3,020.8,20.5,0000.0,0003.30,0007.02,0003.06
2024-03-18 16:25:00,SystemResetWarning,0834.9,5.00,000.00,019.0,018.6,000.0,027.3,020.8,20.8,0000.0,0003.29,0007.26,0003.01
2024-03-18 16:26:00,SystemResetWarning,0834.9,5.00,000.00,019.0,018.6,000.0,027.3,020.8,20.5,0000.0,0003.31,0006.57,0002.99
2024-03-18 16:27:00,SystemResetWarning,0834.9,5.00,000.00,019.1,018.7,000.0,027.3,020.8,20.3,0000.0,0003.29,0005.78,0002.98
2024-03-18 16:28:00,SystemResetWarning,0834.9,5.00,000.00,019.1,018.7,000.0,027.3,020.8,20.2,0000.0,0003.28,0006.95,0002.97
2024-03-18 16:29:00,SystemResetWarning,0834.9,5.00,000.00,019.1,018.7,000.0,027.3,020.8,20.2,0000.0,0003.28,0007.20,0002.98
2024-03-18 16:30:00,SystemResetWarning,0834.8,5.00,000.00,019.1,018.7,000.0,027.3,020.9,20.1,0000.0,0003.27,0007.26,0003.01
2024-03-18 16:31:00,SystemResetWarning,0835.1,5.00,000.00,019.1,018.7,000.0,027.4,020.9,20.0,0000.0,0003.28,0007.24,0003.04
2024-03-18 16:32:00,SystemResetWarning,0835.2,5.00,000.00,019.1,018.8,000.0,027.4,020.9,19.8,0000.0,0003.30,0007.30,0003.08
2024-03-18 16:33:00,SystemResetWarning,0835.4,5.00,000.00,019.1,018.8,000.0,027.4,020.9,19.7,0000.0,0003.35,0007.34,0003.12
2024-03-18 16:34:00,SystemResetWarning,0835.4,5.00,000.00,019.2,018.8,000.0,027.4,020.9,20.0,0000.0,0003.38,0007.52,0003.15
2024-03-18 16:35:00,SystemResetWarning,0835.3,5.00,000.00,019.2,018.8,000.0,027.4,020.9,20.4,0000.0,0003.40,0007.75,0003.16
2024-03-18 16:36:00,SystemResetWarning,0835.3,5.00,000.00,019.2,018.8,000.0,027.4,021.0,20.1,0000.0,0003.40,0007.67,0003.18
2024-03-18 16:37:00,SystemResetWarning,0835.4,5.00,000.00,019.2,018.9,000.0,027.4,021.0,20.1,0000.0,0003.42,0007.65,0003.20
2024-03-18 16:38:00,SystemResetWarning,0835.4,5.00,000.00,019.2,018.9,000.0,027.5,021.0,20.1,0000.0,0003.45,0007.64,0003.24
2024-03-18 16:39:00,SystemResetWarning,0835.4,5.00,000.00,019.3,018.9,000.0,027.5,021.0,20.1,0000.0,0003.49,0006.86,0003.27
2024-03-18 16:40:00,SystemResetWarning,0835.4,5.00,000.00,019.3,018.9,000.0,027.5,021.0,20.0,0000.0,0003.52,0006.53,0003.31
2024-03-18 16:41:00,SystemResetWarning,0835.0,5.01,000.00,019.3,019.0,000.0,027.5,021.0,19.9,0000.0,0003.58,0006.50,0003.37
2024-03-18 16:42:00,SystemResetWarning,0834.8,5.00,000.00,019.3,019.0,000.0,027.5,021.1,20.0,0000.0,0003.64,0006.62,0003.43
2024-03-18 16:43:00,SystemResetWarning,0834.8,5.00,000.00,019.3,019.0,000.0,027.5,021.1,20.1,0000.0,0003.72,0007.03,0003.51
2024-03-18 16:44:00,SystemResetWarning,0834.8,4.99,000.00,019.3,019.0,000.0,027.6,021.1,20.1,0000.0,0003.79,0007.56,0003.57
2024-03-18 16:45:00,SystemResetWarning,0834.8,4.98,000.00,019.4,019.0,000.0,027.6,021.1,20.0,0000.0,0003.86,0007.58,0003.63
2024-03-18 16:46:00,SystemResetWarning,0834.8,5.00,000.00,019.4,019.1,000.0,027.6,021.1,19.9,0000.0,0003.93,0007.07,0003.70
2024-03-18 16:47:00,SystemResetWarning,0834.8,5.00,000.00,019.4,019.1,000.0,027.6,021.1,20.0,0000.0,0004.02,0006.83,0003.77
2024-03-18 16:48:00,SystemResetWarning,0834.7,5.00,000.00,019.4,019.1,000.0,027.6,021.2,20.1,0000.0,0004.09,0006.99,0003.83
2024-03-18 16:49:00,SystemResetWarning,0834.8,5.00,000.00,019.4,019.1,000.0,027.6,021.2,20.2,0000.0,0004.15,0007.08,0003.89
2024-03-18 16:50:00,SystemResetWarning,0834.7,5.01,000.00,019.5,019.1,000.0,027.7,021.2,20.2,0000.0,0004.19,0007.23,0003.93
2024-03-18 16:51:00,SystemResetWarning,0834.7,5.00,000.00,019.5,019.2,000.0,027.7,021.2,20.3,0000.0,0004.23,0007.60,0003.96
2024-03-18 16:52:00,SystemResetWarning,0834.7,5.00,000.00,019.5,019.2,000.0,027.7,021.2,20.2,0000.0,0004.23,0007.65,0003.97
2024-03-18 16:53:00,SystemResetWarning,0834.9,5.00,000.00,019.5,019.2,000.0,027.7,021.3,20.0,0000.0,0004.22,0007.62,0003.96
2024-03-18 16:54:00,SystemResetWarning,0834.7,4.99,000.00,019.5,019.2,000.0,027.7,021.3,20.0,0000.0,0004.19,0007.39,0003.95
2024-03-18 16:55:00,SystemResetWarning,0834.7,5.02,000.00,019.5,019.2,000.0,027.7,021.3,20.2,0000.0,0004.16,0006.76,0003.93
2024-03-18 16:56:00,SystemResetWarning,0834.7,5.00,000.00,019.6,019.3,000.0,027.8,021.3,20.0,0000.0,0004.15,0006.70,0003.92
2024-03-18 16:57:00,SystemResetWarning,0834.9,4.99,000.00,019.6,019.3,000.0,027.8,021.3,19.9,0000.0,0004.13,0006.83,0003.90
2024-03-18 16:58:00,SystemResetWarning,0834.8,4.99,000.00,019.6,019.3,000.0,027.8,021.4,19.3,0000.0,0004.11,0006.98,0003.88
2024-03-18 16:59:00,SystemResetWarning,0834.9,5.01,000.00,019.6,019.3,000.0,027.8,021.4,19.6,0000.0,0004.07,0007.56,0003.87
